カタログに戻る

KUIPER-00047

運用中通信LEO
NORAD 64507·PAYLOAD·🇺🇸 United States

打ち上げ Jun 23, 2025 から Cape Canaveral Space Force Station

Loading…

次のパス (今後24時間)

TLE

最新Source: CelesTrak SupGP

元期: Sep 14, 2026, 20:29 UTC

1 64507C 25134H   26257.85359954  .00003717  00000+0  48668-3 0  2576
2 64507  51.8977  99.0686 0000798 109.5113 355.0966 14.79916408    17

AllMySatでKUIPER-00047をリアルタイム追跡

Download on the App Store